owner,sensor,date,latitude,longitude,relative_humidity,qcFlag 
COMPS,ioos:station:USF.COMPS:C10:1,2019-02-01T03:05:00Z,27.1690,-82.9260,81.27,1111122 
COMPS,ioos:station:USF.COMPS:C10:1,2019-02-01T03:35:00Z,27.1690,-82.9260,81.71,1111122 
COMPS,ioos:station:USF.COMPS:C10:1,2019-02-01T06:05:00Z,27.1690,-82.9260,89.98,1111122 
COMPS,ioos:station:USF.COMPS:C10:1,2019-02-01T06:35:00Z,27.1690,-82.9260,90.56,1111122 
COMPS,ioos:station:USF.COMPS:C10:1,2019-02-01T07:05:00Z,27.1690,-82.9260,90.64,1111122 
COMPS,ioos:station:USF.COMPS:C10:1,2019-02-01T07:35:00Z,27.1690,-82.9260,91.3,1111122 
COMPS,ioos:station:USF.COMPS:C10:1,2019-02-01T09:05:00Z,27.1690,-82.9260,91.87,1111122 
COMPS,ioos:station:USF.COMPS:C10:1,2019-02-01T09:35:00Z,27.1690,-82.9260,92.08,1111122 
COMPS,ioos:station:USF.COMPS:C10:1,2019-02-01T10:05:00Z,27.1690,-82.9260,92.28,1111122 
COMPS,ioos:station:USF.COMPS:C10:1,2019-02-01T10:35:00Z,27.1690,-82.9260,92.46,1111122 
COMPS,ioos:station:USF.COMPS:C10:1,2019-02-01T11:05:00Z,27.1690,-82.9260,93.05,1111122 
COMPS,ioos:station:USF.COMPS:C10:1,2019-02-01T11:35:00Z,27.1690,-82.9260,94.31,1111122 
COMPS,ioos:station:USF.COMPS:C10:1,2019-02-01T12:05:00Z,27.1690,-82.9260,93.5,1111122 
COMPS,ioos:station:USF.COMPS:C10:1,2019-02-01T12:35:00Z,27.1690,-82.9260,93.12,1111122 
COMPS,ioos:station:USF.COMPS:C10:1,2019-02-01T13:05:00Z,27.1690,-82.9260,92.89,1111122 
COMPS,ioos:station:USF.COMPS:C10:1,2019-02-01T13:35:00Z,27.1690,-82.9260,92.6,1111122 
COMPS,ioos:station:USF.COMPS:C10:1,2019-02-01T16:05:00Z,27.1690,-82.9260,91.75,1111122 
COMPS,ioos:station:USF.COMPS:C10:1,2019-02-01T16:35:00Z,27.1690,-82.9260,91.88,1111122 
COMPS,ioos:station:USF.COMPS:C10:1,2019-02-01T17:05:00Z,27.1690,-82.9260,91.75,1111122 
COMPS,ioos:station:USF.COMPS:C10:1,2019-02-01T17:35:00Z,27.1690,-82.9260,91.53,1111122 
COMPS,ioos:station:USF.COMPS:C10:1,2019-02-01T19:05:00Z,27.1690,-82.9260,90.52,1111122 
COMPS,ioos:station:USF.COMPS:C10:1,2019-02-01T19:35:00Z,27.1690,-82.9260,90.87,1111122 
COMPS,ioos:station:USF.COMPS:C10:1,2019-02-01T20:05:00Z,27.1690,-82.9260,91.45,1111122 
COMPS,ioos:station:USF.COMPS:C10:1,2019-02-01T20:35:00Z,27.1690,-82.9260,92.27,1111122 
COMPS,ioos:station:USF.COMPS:C10:1,2019-02-01T21:05:00Z,27.1690,-82.9260,92.61,1111122 
COMPS,ioos:station:USF.COMPS:C10:1,2019-02-01T21:35:00Z,27.1690,-82.9260,93.06,1111122 
COMPS,ioos:station:USF.COMPS:C10:1,2019-02-01T22:05:00Z,27.1690,-82.9260,93.16,1111122 
COMPS,ioos:station:USF.COMPS:C10:1,2019-02-01T22:35:00Z,27.1690,-82.9260,92.81,1111122 
COMPS,ioos:station:USF.COMPS:C10:1,2019-02-01T23:05:00Z,27.1690,-82.9260,92.9,1111122 
COMPS,ioos:station:USF.COMPS:C10:1,2019-02-01T23:35:00Z,27.1690,-82.9260,92.84,1111122 
COMPS,ioos:station:USF.COMPS:C10:1,2019-02-02T00:05:00Z,27.1690,-82.9260,92.75,1111122 
COMPS,ioos:station:USF.COMPS:C10:1,2019-02-02T00:35:00Z,27.1690,-82.9260,92.76,1111122 
COMPS,ioos:station:USF.COMPS:C10:1,2019-02-02T02:05:00Z,27.1690,-82.9260,92.76,1111122 
COMPS,ioos:station:USF.COMPS:C10:1,2019-02-02T02:35:00Z,27.1690,-82.9260,92.94,1111122 
COMPS,ioos:station:USF.COMPS:C10:1,2019-02-02T03:05:00Z,27.1690,-82.9260,92.74,1111122 
COMPS,ioos:station:USF.COMPS:C10:1,2019-02-02T03:35:00Z,27.1690,-82.9260,92.16,1111122 
COMPS,ioos:station:USF.COMPS:C10:1,2019-02-02T05:05:00Z,27.1690,-82.9260,92.76,1111122 
COMPS,ioos:station:USF.COMPS:C10:1,2019-02-02T05:35:00Z,27.1690,-82.9260,93.13,1111122 
COMPS,ioos:station:USF.COMPS:C10:1,2019-02-02T06:05:00Z,27.1690,-82.9260,93.52,1111122 
COMPS,ioos:station:USF.COMPS:C10:1,2019-02-02T06:35:00Z,27.1690,-82.9260,93.74,1111122 
COMPS,ioos:station:USF.COMPS:C10:1,2019-02-02T07:05:00Z,27.1690,-82.9260,93.67,1111122 
COMPS,ioos:station:USF.COMPS:C10:1,2019-02-02T07:35:00Z,27.1690,-82.9260,93.79,1111122 
COMPS,ioos:station:USF.COMPS:C10:1,2019-02-02T08:05:00Z,27.1690,-82.9260,93.82,1111122 
COMPS,ioos:station:USF.COMPS:C10:1,2019-02-02T08:35:00Z,27.1690,-82.9260,93.96,1111122 
COMPS,ioos:station:USF.COMPS:C10:1,2019-02-02T09:05:00Z,27.1690,-82.9260,94.09,1111122 
COMPS,ioos:station:USF.COMPS:C10:1,2019-02-02T09:35:00Z,27.1690,-82.9260,94.35,1111122 
COMPS,ioos:station:USF.COMPS:C10:1,2019-02-02T10:05:00Z,27.1690,-82.9260,94.59,1111122 
COMPS,ioos:station:USF.COMPS:C10:1,2019-02-02T10:35:00Z,27.1690,-82.9260,94.88,1111122 
COMPS,ioos:station:USF.COMPS:C10:1,2019-02-02T11:05:00Z,27.1690,-82.9260,95.16,1111122 
COMPS,ioos:station:USF.COMPS:C10:1,2019-02-02T11:35:00Z,27.1690,-82.9260,95.45,1111122 
COMPS,ioos:station:USF.COMPS:C10:1,2019-02-02T12:05:00Z,27.1690,-82.9260,95.65,1111122 
COMPS,ioos:station:USF.COMPS:C10:1,2019-02-02T12:35:00Z,27.1690,-82.9260,95.83,1111122 
COMPS,ioos:station:USF.COMPS:C10:1,2019-02-02T13:05:00Z,27.1690,-82.9260,95.88,1111122 
COMPS,ioos:station:USF.COMPS:C10:1,2019-02-02T13:35:00Z,27.1690,-82.9260,95.83,1111122 
COMPS,ioos:station:USF.COMPS:C10:1,2019-02-02T14:05:00Z,27.1690,-82.9260,95.64,1111122 
COMPS,ioos:station:USF.COMPS:C10:1,2019-02-02T14:35:00Z,27.1690,-82.9260,95.56,1111122 
COMPS,ioos:station:USF.COMPS:C10:1,2019-02-02T15:05:00Z,27.1690,-82.9260,95.28,1111122 
COMPS,ioos:station:USF.COMPS:C10:1,2019-02-02T15:35:00Z,27.1690,-82.9260,95.03,1111122 
COMPS,ioos:station:USF.COMPS:C10:1,2019-02-02T16:05:00Z,27.1690,-82.9260,94.74,1111122 
COMPS,ioos:station:USF.COMPS:C10:1,2019-02-02T16:35:00Z,27.1690,-82.9260,94.71,1111122 
COMPS,ioos:station:USF.COMPS:C10:1,2019-02-02T17:05:00Z,27.1690,-82.9260,94.46,1111122 
COMPS,ioos:station:USF.COMPS:C10:1,2019-02-02T17:35:00Z,27.1690,-82.9260,93.64,1111122 
COMPS,ioos:station:USF.COMPS:C10:1,2019-02-02T18:05:00Z,27.1690,-82.9260,93.04,1111122 
COMPS,ioos:station:USF.COMPS:C10:1,2019-02-02T18:35:00Z,27.1690,-82.9260,93.07,1111122 
COMPS,ioos:station:USF.COMPS:C10:1,2019-02-02T19:05:00Z,27.1690,-82.9260,93.17,1111122 
COMPS,ioos:station:USF.COMPS:C10:1,2019-02-02T19:35:00Z,27.1690,-82.9260,93.32,1111122 
COMPS,ioos:station:USF.COMPS:C10:1,2019-02-02T20:05:00Z,27.1690,-82.9260,93.53,1111122 
COMPS,ioos:station:USF.COMPS:C10:1,2019-02-02T20:35:00Z,27.1690,-82.9260,93.32,1111122 
COMPS,ioos:station:USF.COMPS:C10:1,2019-02-02T21:05:00Z,27.1690,-82.9260,93.5,1111122 
COMPS,ioos:station:USF.COMPS:C10:1,2019-02-02T21:35:00Z,27.1690,-82.9260,93.63,1111122 
COMPS,ioos:station:USF.COMPS:C10:1,2019-02-02T22:05:00Z,27.1690,-82.9260,94.11,1111122 
COMPS,ioos:station:USF.COMPS:C10:1,2019-02-02T22:35:00Z,27.1690,-82.9260,94.3,1111122 
COMPS,ioos:station:USF.COMPS:C10:1,2019-02-02T23:05:00Z,27.1690,-82.9260,94.43,1111122 
COMPS,ioos:station:USF.COMPS:C10:1,2019-02-02T23:35:00Z,27.1690,-82.9260,94.64,1111122 
COMPS,ioos:station:USF.COMPS:C10:1,2019-02-03T00:05:00Z,27.1690,-82.9260,95.07,1111122 
COMPS,ioos:station:USF.COMPS:C10:1,2019-02-03T00:35:00Z,27.1690,-82.9260,95.17,1111122 
COMPS,ioos:station:USF.COMPS:C10:1,2019-02-03T01:05:00Z,27.1690,-82.9260,95.2,1111122 
COMPS,ioos:station:USF.COMPS:C10:1,2019-02-03T01:35:00Z,27.1690,-82.9260,95.69,1111122 
COMPS,ioos:station:USF.COMPS:C10:1,2019-02-03T02:05:00Z,27.1690,-82.9260,95.56,1111122 
COMPS,ioos:station:USF.COMPS:C10:1,2019-02-03T02:35:00Z,27.1690,-82.9260,95.8,1111122 
COMPS,ioos:station:USF.COMPS:C10:1,2019-02-03T03:05:00Z,27.1690,-82.9260,96.08,1111122 
COMPS,ioos:station:USF.COMPS:C10:1,2019-02-03T03:35:00Z,27.1690,-82.9260,96.39,1111122 
COMPS,ioos:station:USF.COMPS:C10:1,2019-02-03T04:05:00Z,27.1690,-82.9260,96.55,1111122 
COMPS,ioos:station:USF.COMPS:C10:1,2019-02-03T04:35:00Z,27.1690,-82.9260,96.65,1111122 
COMPS,ioos:station:USF.COMPS:C10:1,2019-02-03T05:05:00Z,27.1690,-82.9260,96.75,1111122 
COMPS,ioos:station:USF.COMPS:C10:1,2019-02-03T05:35:00Z,27.1690,-82.9260,96.9,1111122 
COMPS,ioos:station:USF.COMPS:C10:1,2019-02-03T06:05:00Z,27.1690,-82.9260,97.04,1111122 
COMPS,ioos:station:USF.COMPS:C10:1,2019-02-03T06:35:00Z,27.1690,-82.9260,96.97,1111122 
COMPS,ioos:station:USF.COMPS:C10:1,2019-02-03T07:05:00Z,27.1690,-82.9260,96.86,1111122 
COMPS,ioos:station:USF.COMPS:C10:1,2019-02-03T07:35:00Z,27.1690,-82.9260,96.9,1111122 
COMPS,ioos:station:USF.COMPS:C10:1,2019-02-03T08:05:00Z,27.1690,-82.9260,97.0,1111122 
COMPS,ioos:station:USF.COMPS:C10:1,2019-02-03T08:35:00Z,27.1690,-82.9260,97.02,1111122 
COMPS,ioos:station:USF.COMPS:C10:1,2019-02-03T09:05:00Z,27.1690,-82.9260,97.08,1111122 
COMPS,ioos:station:USF.COMPS:C10:1,2019-02-03T09:35:00Z,27.1690,-82.9260,97.2,1111122 
COMPS,ioos:station:USF.COMPS:C10:1,2019-02-03T10:05:00Z,27.1690,-82.9260,97.42,1111122 
COMPS,ioos:station:USF.COMPS:C10:1,2019-02-03T10:35:00Z,27.1690,-82.9260,97.73,1111122 
COMPS,ioos:station:USF.COMPS:C10:1,2019-02-03T11:05:00Z,27.1690,-82.9260,97.87,1111122 
COMPS,ioos:station:USF.COMPS:C10:1,2019-02-03T11:35:00Z,27.1690,-82.9260,98.02,1111122 
COMPS,ioos:station:USF.COMPS:C10:1,2019-02-03T12:05:00Z,27.1690,-82.9260,98.22,1111122 
COMPS,ioos:station:USF.COMPS:C10:1,2019-02-03T12:35:00Z,27.1690,-82.9260,98.29,1111122 
COMPS,ioos:station:USF.COMPS:C10:1,2019-02-03T13:05:00Z,27.1690,-82.9260,98.38,1111122 
COMPS,ioos:station:USF.COMPS:C10:1,2019-02-03T13:35:00Z,27.1690,-82.9260,98.02,1111122 
COMPS,ioos:station:USF.COMPS:C10:1,2019-02-03T14:05:00Z,27.1690,-82.9260,98.03,1111122 
COMPS,ioos:station:USF.COMPS:C10:1,2019-02-03T14:35:00Z,27.1690,-82.9260,98.13,1111122 
COMPS,ioos:station:USF.COMPS:C10:1,2019-02-03T15:05:00Z,27.1690,-82.9260,98.19,1111122 
COMPS,ioos:station:USF.COMPS:C10:1,2019-02-03T15:35:00Z,27.1690,-82.9260,98.23,1111122 
COMPS,ioos:station:USF.COMPS:C10:1,2019-02-03T16:05:00Z,27.1690,-82.9260,98.26,1111122 
COMPS,ioos:station:USF.COMPS:C10:1,2019-02-03T16:35:00Z,27.1690,-82.9260,98.45,1111122 
COMPS,ioos:station:USF.COMPS:C10:1,2019-02-03T17:05:00Z,27.1690,-82.9260,98.41,1111122 
COMPS,ioos:station:USF.COMPS:C10:1,2019-02-03T17:35:00Z,27.1690,-82.9260,98.43,1111122 
COMPS,ioos:station:USF.COMPS:C10:1,2019-02-03T18:05:00Z,27.1690,-82.9260,98.39,1111122 
COMPS,ioos:station:USF.COMPS:C10:1,2019-02-03T18:35:00Z,27.1690,-82.9260,98.32,1111122 
COMPS,ioos:station:USF.COMPS:C10:1,2019-02-03T19:05:00Z,27.1690,-82.9260,98.39,1111122 
COMPS,ioos:station:USF.COMPS:C10:1,2019-02-03T19:35:00Z,27.1690,-82.9260,98.5,1111122 
COMPS,ioos:station:USF.COMPS:C10:1,2019-02-03T20:05:00Z,27.1690,-82.9260,98.62,1111122 
COMPS,ioos:station:USF.COMPS:C10:1,2019-02-03T20:35:00Z,27.1690,-82.9260,98.66,1111122 
COMPS,ioos:station:USF.COMPS:C10:1,2019-02-03T22:05:00Z,27.1690,-82.9260,98.68,1111122 
COMPS,ioos:station:USF.COMPS:C10:1,2019-02-03T22:35:00Z,27.1690,-82.9260,98.6,1111122 
COMPS,ioos:station:USF.COMPS:C10:1,2019-02-03T23:05:00Z,27.1690,-82.9260,98.66,1111122 
COMPS,ioos:station:USF.COMPS:C10:1,2019-02-03T23:35:00Z,27.1690,-82.9260,98.71,1111122 
COMPS,ioos:station:USF.COMPS:C10:1,2019-02-04T00:05:00Z,27.1690,-82.9260,98.66,1111122 
COMPS,ioos:station:USF.COMPS:C10:1,2019-02-04T00:35:00Z,27.1690,-82.9260,98.69,1111122 
COMPS,ioos:station:USF.COMPS:C10:1,2019-02-04T01:05:00Z,27.1690,-82.9260,98.75,1111122 
COMPS,ioos:station:USF.COMPS:C10:1,2019-02-04T01:35:00Z,27.1690,-82.9260,98.87,1111122 
COMPS,ioos:station:USF.COMPS:C10:1,2019-02-04T02:05:00Z,27.1690,-82.9260,98.88,1111122 
COMPS,ioos:station:USF.COMPS:C10:1,2019-02-04T02:35:00Z,27.1690,-82.9260,98.91,1111122 
COMPS,ioos:station:USF.COMPS:C10:1,2019-02-04T03:05:00Z,27.1690,-82.9260,98.87,1111122 
COMPS,ioos:station:USF.COMPS:C10:1,2019-02-04T03:35:00Z,27.1690,-82.9260,98.99,1111122 
COMPS,ioos:station:USF.COMPS:C10:1,2019-02-04T04:05:00Z,27.1690,-82.9260,98.97,1111122 
COMPS,ioos:station:USF.COMPS:C10:1,2019-02-04T04:35:00Z,27.1690,-82.9260,98.92,1111122 
COMPS,ioos:station:USF.COMPS:C10:1,2019-02-04T05:05:00Z,27.1690,-82.9260,99.13,1111122 
COMPS,ioos:station:USF.COMPS:C10:1,2019-02-04T05:35:00Z,27.1690,-82.9260,99.07,1111122 
COMPS,ioos:station:USF.COMPS:C10:1,2019-02-04T06:05:00Z,27.1690,-82.9260,99.02,1111122 
COMPS,ioos:station:USF.COMPS:C10:1,2019-02-04T06:35:00Z,27.1690,-82.9260,98.94,1111122 
COMPS,ioos:station:USF.COMPS:C10:1,2019-02-04T07:05:00Z,27.1690,-82.9260,98.93,1111122 
COMPS,ioos:station:USF.COMPS:C10:1,2019-02-04T07:35:00Z,27.1690,-82.9260,99.05,1111122 
COMPS,ioos:station:USF.COMPS:C10:1,2019-02-04T08:05:00Z,27.1690,-82.9260,99.04,1111122 
COMPS,ioos:station:USF.COMPS:C10:1,2019-02-04T08:35:00Z,27.1690,-82.9260,99.03,1111122 
COMPS,ioos:station:USF.COMPS:C10:1,2019-02-04T09:05:00Z,27.1690,-82.9260,98.92,1111122 
COMPS,ioos:station:USF.COMPS:C10:1,2019-02-04T09:35:00Z,27.1690,-82.9260,99.08,1111122 
COMPS,ioos:station:USF.COMPS:C10:1,2019-02-04T10:05:00Z,27.1690,-82.9260,99.09,1111122 
COMPS,ioos:station:USF.COMPS:C10:1,2019-02-04T10:35:00Z,27.1690,-82.9260,99.15,1111122 
COMPS,ioos:station:USF.COMPS:C10:1,2019-02-04T11:05:00Z,27.1690,-82.9260,99.23,1111122 
COMPS,ioos:station:USF.COMPS:C10:1,2019-02-04T11:35:00Z,27.1690,-82.9260,99.23,1111122 
COMPS,ioos:station:USF.COMPS:C10:1,2019-02-04T12:05:00Z,27.1690,-82.9260,99.03,1111122 
COMPS,ioos:station:USF.COMPS:C10:1,2019-02-04T12:35:00Z,27.1690,-82.9260,98.99,1111122 
COMPS,ioos:station:USF.COMPS:C10:1,2019-02-04T13:05:00Z,27.1690,-82.9260,98.82,1111122 
COMPS,ioos:station:USF.COMPS:C10:1,2019-02-04T13:35:00Z,27.1690,-82.9260,98.71,1111122 
COMPS,ioos:station:USF.COMPS:C10:1,2019-02-04T14:05:00Z,27.1690,-82.9260,98.48,1111122 
COMPS,ioos:station:USF.COMPS:C10:1,2019-02-04T14:35:00Z,27.1690,-82.9260,98.46,1111122 
COMPS,ioos:station:USF.COMPS:C10:1,2019-02-04T15:05:00Z,27.1690,-82.9260,98.07,1111122 
COMPS,ioos:station:USF.COMPS:C10:1,2019-02-04T15:35:00Z,27.1690,-82.9260,97.47,1111122 
COMPS,ioos:station:USF.COMPS:C10:1,2019-02-04T16:05:00Z,27.1690,-82.9260,96.83,1111122 
COMPS,ioos:station:USF.COMPS:C10:1,2019-02-04T16:35:00Z,27.1690,-82.9260,96.39,1111122 
COMPS,ioos:station:USF.COMPS:C10:1,2019-02-04T17:05:00Z,27.1690,-82.9260,95.58,1111122 
COMPS,ioos:station:USF.COMPS:C10:1,2019-02-04T17:35:00Z,27.1690,-82.9260,94.56,1111122 
COMPS,ioos:station:USF.COMPS:C10:1,2019-02-04T18:05:00Z,27.1690,-82.9260,93.86,1111122 
COMPS,ioos:station:USF.COMPS:C10:1,2019-02-04T18:35:00Z,27.1690,-82.9260,92.89,1111122 
COMPS,ioos:station:USF.COMPS:C10:1,2019-02-04T19:05:00Z,27.1690,-82.9260,91.89,1111122 
COMPS,ioos:station:USF.COMPS:C10:1,2019-02-04T19:35:00Z,27.1690,-82.9260,90.87,1111122 
COMPS,ioos:station:USF.COMPS:C10:1,2019-02-04T20:05:00Z,27.1690,-82.9260,89.63,1111122 
COMPS,ioos:station:USF.COMPS:C10:1,2019-02-04T20:35:00Z,27.1690,-82.9260,88.41,1111122 
COMPS,ioos:station:USF.COMPS:C10:1,2019-02-04T21:05:00Z,27.1690,-82.9260,87.33,1111122 
COMPS,ioos:station:USF.COMPS:C10:1,2019-02-04T21:35:00Z,27.1690,-82.9260,86.7,1111122 
COMPS,ioos:station:USF.COMPS:C10:1,2019-02-04T22:05:00Z,27.1690,-82.9260,86.7,1111122 
COMPS,ioos:station:USF.COMPS:C10:1,2019-02-04T22:35:00Z,27.1690,-82.9260,86.56,1111122 
COMPS,ioos:station:USF.COMPS:C10:1,2019-02-04T23:05:00Z,27.1690,-82.9260,86.62,1111122 
COMPS,ioos:station:USF.COMPS:C10:1,2019-02-04T23:35:00Z,27.1690,-82.9260,87.71,1111122 
COMPS,ioos:station:USF.COMPS:C10:1,2019-02-05T00:05:00Z,27.1690,-82.9260,88.29,1111122 
COMPS,ioos:station:USF.COMPS:C10:1,2019-02-05T00:35:00Z,27.1690,-82.9260,88.59,1111122 
COMPS,ioos:station:USF.COMPS:C10:1,2019-02-05T01:05:00Z,27.1690,-82.9260,88.76,1111122 
COMPS,ioos:station:USF.COMPS:C10:1,2019-02-05T01:35:00Z,27.1690,-82.9260,89.3,1111122 
COMPS,ioos:station:USF.COMPS:C10:1,2019-02-05T02:05:00Z,27.1690,-82.9260,89.37,1111122 
COMPS,ioos:station:USF.COMPS:C10:1,2019-02-05T02:35:00Z,27.1690,-82.9260,89.11,1111122 
COMPS,ioos:station:USF.COMPS:C10:1,2019-02-05T03:05:00Z,27.1690,-82.9260,90.27,1111122 
COMPS,ioos:station:USF.COMPS:C10:1,2019-02-05T03:35:00Z,27.1690,-82.9260,91.07,1111122 
COMPS,ioos:station:USF.COMPS:C10:1,2019-02-05T04:05:00Z,27.1690,-82.9260,92.85,1111122 
COMPS,ioos:station:USF.COMPS:C10:1,2019-02-05T04:35:00Z,27.1690,-82.9260,94.45,1111122 
COMPS,ioos:station:USF.COMPS:C10:1,2019-02-05T05:05:00Z,27.1690,-82.9260,94.57,1111122 
COMPS,ioos:station:USF.COMPS:C10:1,2019-02-05T05:35:00Z,27.1690,-82.9260,94.5,1111122 
COMPS,ioos:station:USF.COMPS:C10:1,2019-02-05T06:05:00Z,27.1690,-82.9260,94.71,1111122 
COMPS,ioos:station:USF.COMPS:C10:1,2019-02-05T06:35:00Z,27.1690,-82.9260,93.59,1111122 
COMPS,ioos:station:USF.COMPS:C10:1,2019-02-05T07:05:00Z,27.1690,-82.9260,92.52,1111122 
COMPS,ioos:station:USF.COMPS:C10:1,2019-02-05T07:35:00Z,27.1690,-82.9260,92.08,1111122 
COMPS,ioos:station:USF.COMPS:C10:1,2019-02-05T08:05:00Z,27.1690,-82.9260,91.86,1111122 
COMPS,ioos:station:USF.COMPS:C10:1,2019-02-05T08:35:00Z,27.1690,-82.9260,92.27,1111122 
COMPS,ioos:station:USF.COMPS:C10:1,2019-02-05T09:05:00Z,27.1690,-82.9260,92.69,1111122 
COMPS,ioos:station:USF.COMPS:C10:1,2019-02-05T09:35:00Z,27.1690,-82.9260,92.94,1111122 
COMPS,ioos:station:USF.COMPS:C10:1,2019-02-05T10:05:00Z,27.1690,-82.9260,93.29,1111122 
COMPS,ioos:station:USF.COMPS:C10:1,2019-02-05T10:35:00Z,27.1690,-82.9260,93.45,1111122 
COMPS,ioos:station:USF.COMPS:C10:1,2019-02-05T11:05:00Z,27.1690,-82.9260,93.6,1111122 
COMPS,ioos:station:USF.COMPS:C10:1,2019-02-05T11:35:00Z,27.1690,-82.9260,93.17,1111122 
COMPS,ioos:station:USF.COMPS:C10:1,2019-02-05T12:05:00Z,27.1690,-82.9260,93.36,1111122 
COMPS,ioos:station:USF.COMPS:C10:1,2019-02-05T12:35:00Z,27.1690,-82.9260,93.69,1111122 
COMPS,ioos:station:USF.COMPS:C10:1,2019-02-05T13:05:00Z,27.1690,-82.9260,93.72,1111122 
COMPS,ioos:station:USF.COMPS:C10:1,2019-02-05T13:35:00Z,27.1690,-82.9260,94.45,1111122 
COMPS,ioos:station:USF.COMPS:C10:1,2019-02-05T14:05:00Z,27.1690,-82.9260,96.19,1111122 
COMPS,ioos:station:USF.COMPS:C10:1,2019-02-05T14:35:00Z,27.1690,-82.9260,96.63,1111122 
COMPS,ioos:station:USF.COMPS:C10:1,2019-02-05T15:05:00Z,27.1690,-82.9260,96.34,1111122 
COMPS,ioos:station:USF.COMPS:C10:1,2019-02-05T15:35:00Z,27.1690,-82.9260,95.58,1111122 
COMPS,ioos:station:USF.COMPS:C10:1,2019-02-05T18:05:00Z,27.1690,-82.9260,88.0,1111122 
COMPS,ioos:station:USF.COMPS:C10:1,2019-02-05T18:35:00Z,27.1690,-82.9260,86.81,1111122 
COMPS,ioos:station:USF.COMPS:C10:1,2019-02-05T19:05:00Z,27.1690,-82.9260,86.81,1111122 
COMPS,ioos:station:USF.COMPS:C10:1,2019-02-05T19:35:00Z,27.1690,-82.9260,88.23,1111122 
COMPS,ioos:station:USF.COMPS:C10:1,2019-02-05T20:05:00Z,27.1690,-82.9260,88.02,1111122 
COMPS,ioos:station:USF.COMPS:C10:1,2019-02-05T20:35:00Z,27.1690,-82.9260,86.73,1111122 
COMPS,ioos:station:USF.COMPS:C10:1,2019-02-05T21:05:00Z,27.1690,-82.9260,86.11,1111122 
COMPS,ioos:station:USF.COMPS:C10:1,2019-02-05T21:35:00Z,27.1690,-82.9260,87.79,1111122 
COMPS,ioos:station:USF.COMPS:C10:1,2019-02-05T22:05:00Z,27.1690,-82.9260,88.13,1111122 
COMPS,ioos:station:USF.COMPS:C10:1,2019-02-05T22:35:00Z,27.1690,-82.9260,88.26,1111122 
COMPS,ioos:station:USF.COMPS:C10:1,2019-02-05T23:05:00Z,27.1690,-82.9260,88.13,1111122 
COMPS,ioos:station:USF.COMPS:C10:1,2019-02-05T23:35:00Z,27.1690,-82.9260,89.33,1111122 
COMPS,ioos:station:USF.COMPS:C10:1,2019-02-06T00:05:00Z,27.1690,-82.9260,90.12,1111122 
COMPS,ioos:station:USF.COMPS:C10:1,2019-02-06T00:35:00Z,27.1690,-82.9260,90.73,1111122 
COMPS,ioos:station:USF.COMPS:C10:1,2019-02-06T01:05:00Z,27.1690,-82.9260,91.23,1111122 
COMPS,ioos:station:USF.COMPS:C10:1,2019-02-06T01:35:00Z,27.1690,-82.9260,92.04,1111122 
COMPS,ioos:station:USF.COMPS:C10:1,2019-02-06T02:05:00Z,27.1690,-82.9260,93.19,1111122 
COMPS,ioos:station:USF.COMPS:C10:1,2019-02-06T02:35:00Z,27.1690,-82.9260,93.7,1111122 
COMPS,ioos:station:USF.COMPS:C10:1,2019-02-06T03:05:00Z,27.1690,-82.9260,93.94,1111122 
COMPS,ioos:station:USF.COMPS:C10:1,2019-02-06T03:35:00Z,27.1690,-82.9260,94.08,1111122 
COMPS,ioos:station:USF.COMPS:C10:1,2019-02-06T04:05:00Z,27.1690,-82.9260,94.7,1111122 
COMPS,ioos:station:USF.COMPS:C10:1,2019-02-06T04:35:00Z,27.1690,-82.9260,96.94,1111122 
COMPS,ioos:station:USF.COMPS:C10:1,2019-02-06T05:05:00Z,27.1690,-82.9260,97.96,1111122 
COMPS,ioos:station:USF.COMPS:C10:1,2019-02-06T05:35:00Z,27.1690,-82.9260,98.57,1111122 
COMPS,ioos:station:USF.COMPS:C10:1,2019-02-06T06:05:00Z,27.1690,-82.9260,98.86,1111122 
COMPS,ioos:station:USF.COMPS:C10:1,2019-02-06T06:35:00Z,27.1690,-82.9260,99.12,1111122 
COMPS,ioos:station:USF.COMPS:C10:1,2019-02-06T07:05:00Z,27.1690,-82.9260,99.06,1111122 
COMPS,ioos:station:USF.COMPS:C10:1,2019-02-06T07:35:00Z,27.1690,-82.9260,98.87,1111122 
COMPS,ioos:station:USF.COMPS:C10:1,2019-02-06T08:05:00Z,27.1690,-82.9260,98.06,1111122 
COMPS,ioos:station:USF.COMPS:C10:1,2019-02-06T08:35:00Z,27.1690,-82.9260,98.02,1111122 
COMPS,ioos:station:USF.COMPS:C10:1,2019-02-06T09:05:00Z,27.1690,-82.9260,98.45,1111122 
COMPS,ioos:station:USF.COMPS:C10:1,2019-02-06T09:35:00Z,27.1690,-82.9260,98.69,1111122 
COMPS,ioos:station:USF.COMPS:C10:1,2019-02-06T10:05:00Z,27.1690,-82.9260,98.3,1111122 
COMPS,ioos:station:USF.COMPS:C10:1,2019-02-06T10:35:00Z,27.1690,-82.9260,98.0,1111122 
COMPS,ioos:station:USF.COMPS:C10:1,2019-02-06T11:05:00Z,27.1690,-82.9260,95.29,1111122 
COMPS,ioos:station:USF.COMPS:C10:1,2019-02-06T11:35:00Z,27.1690,-82.9260,93.26,1111122 
COMPS,ioos:station:USF.COMPS:C10:1,2019-02-06T13:05:00Z,27.1690,-82.9260,91.47,1111122 
COMPS,ioos:station:USF.COMPS:C10:1,2019-02-06T13:35:00Z,27.1690,-82.9260,91.02,1111122 
COMPS,ioos:station:USF.COMPS:C10:1,2019-02-06T14:05:00Z,27.1690,-82.9260,90.86,1111122 
COMPS,ioos:station:USF.COMPS:C10:1,2019-02-06T14:35:00Z,27.1690,-82.9260,91.27,1111122 
COMPS,ioos:station:USF.COMPS:C10:1,2019-02-06T15:05:00Z,27.1690,-82.9260,91.86,1111122 
COMPS,ioos:station:USF.COMPS:C10:1,2019-02-06T15:35:00Z,27.1690,-82.9260,92.24,1111122 
COMPS,ioos:station:USF.COMPS:C10:1,2019-02-06T16:05:00Z,27.1690,-82.9260,92.13,1111122 
COMPS,ioos:station:USF.COMPS:C10:1,2019-02-06T16:35:00Z,27.1690,-82.9260,91.96,1111122 
COMPS,ioos:station:USF.COMPS:C10:1,2019-02-06T17:05:00Z,27.1690,-82.9260,91.04,1111122 
COMPS,ioos:station:USF.COMPS:C10:1,2019-02-06T17:35:00Z,27.1690,-82.9260,90.52,1111122 
COMPS,ioos:station:USF.COMPS:C10:1,2019-02-06T18:05:00Z,27.1690,-82.9260,89.46,1111122 
COMPS,ioos:station:USF.COMPS:C10:1,2019-02-06T18:35:00Z,27.1690,-82.9260,88.49,1111122 
COMPS,ioos:station:USF.COMPS:C10:1,2019-02-06T19:05:00Z,27.1690,-82.9260,89.05,1111122 
COMPS,ioos:station:USF.COMPS:C10:1,2019-02-06T19:35:00Z,27.1690,-82.9260,89.94,1111122 
COMPS,ioos:station:USF.COMPS:C10:1,2019-02-06T20:05:00Z,27.1690,-82.9260,90.09,1111122 
COMPS,ioos:station:USF.COMPS:C10:1,2019-02-06T20:35:00Z,27.1690,-82.9260,90.25,1111122 
COMPS,ioos:station:USF.COMPS:C10:1,2019-02-06T21:05:00Z,27.1690,-82.9260,89.58,1111122 
COMPS,ioos:station:USF.COMPS:C10:1,2019-02-06T21:35:00Z,27.1690,-82.9260,89.57,1111122 
COMPS,ioos:station:USF.COMPS:C10:1,2019-02-06T22:05:00Z,27.1690,-82.9260,90.2,1111122 
COMPS,ioos:station:USF.COMPS:C10:1,2019-02-06T22:35:00Z,27.1690,-82.9260,91.67,1111122 
COMPS,ioos:station:USF.COMPS:C10:1,2019-02-06T23:05:00Z,27.1690,-82.9260,92.91,1111122 
COMPS,ioos:station:USF.COMPS:C10:1,2019-02-06T23:35:00Z,27.1690,-82.9260,94.11,1111122 
COMPS,ioos:station:USF.COMPS:C10:1,2019-02-07T00:05:00Z,27.1690,-82.9260,94.61,1111122 
COMPS,ioos:station:USF.COMPS:C10:1,2019-02-07T00:35:00Z,27.1690,-82.9260,94.75,1111122 
COMPS,ioos:station:USF.COMPS:C10:1,2019-02-07T01:05:00Z,27.1690,-82.9260,95.12,1111122 
COMPS,ioos:station:USF.COMPS:C10:1,2019-02-07T01:35:00Z,27.1690,-82.9260,95.16,1111122 
COMPS,ioos:station:USF.COMPS:C10:1,2019-02-07T02:05:00Z,27.1690,-82.9260,95.23,1111122 
COMPS,ioos:station:USF.COMPS:C10:1,2019-02-07T02:35:00Z,27.1690,-82.9260,95.2,1111122 
COMPS,ioos:station:USF.COMPS:C10:1,2019-02-07T03:05:00Z,27.1690,-82.9260,95.54,1111122 
COMPS,ioos:station:USF.COMPS:C10:1,2019-02-07T03:35:00Z,27.1690,-82.9260,95.68,1111122 
COMPS,ioos:station:USF.COMPS:C10:1,2019-02-07T04:05:00Z,27.1690,-82.9260,95.93,1111122 
COMPS,ioos:station:USF.COMPS:C10:1,2019-02-07T04:35:00Z,27.1690,-82.9260,96.02,1111122 
COMPS,ioos:station:USF.COMPS:C10:1,2019-02-07T05:05:00Z,27.1690,-82.9260,95.95,1111122 
COMPS,ioos:station:USF.COMPS:C10:1,2019-02-07T05:35:00Z,27.1690,-82.9260,96.1,1111122 
COMPS,ioos:station:USF.COMPS:C10:1,2019-02-07T06:05:00Z,27.1690,-82.9260,95.92,1111122 
COMPS,ioos:station:USF.COMPS:C10:1,2019-02-07T06:35:00Z,27.1690,-82.9260,95.48,1111122 